Regional Weather Roundup
Issued by NWS

Home | Current Version | Previous Version | Text Only | Print | Product List | Glossary Off
Versions: 1 2 3 4 5 6 7 8 9 10 11 12 13 14 15 16 17 18 19 20 21 22 23 24 25 26 27 28 29 30 31 32 33 34 35 36 37 38 39 40 41 42 43 44 45 46 47 48 49 50

000
ASUS43 KOAX 301302
RWRNE

WEATHER ROUNDUP FOR NEBRASKA
NATIONAL WEATHER SERVICE OMAHA NE
800 AM CDT SUN AUG 30 2015

NOTES: SATELLITE DATA IS BEING USED TO AUGMENT CLOUD COVER ABOVE
       12000 FEET.
       "FAIR" INDICATES FEW OR NO CLOUDS BELOW 12,000 FEET WITH NO
       SIGNIFICANT WEATHER AND/OR OBSTRUCTIONS TO VISIBILITY.

  * THESE STATIONS DO NOT REPORT WEATHER SUCH AS RAIN...SNOW OR FOG.

NEZ001>004-019>022-054>056-301400-
NEBRASKA PANHANDLE

CITY           SKY/WX    TMP DP  RH WIND       PRES   REMARKS
SCOTTSBLUFF    PTCLDY    58  48  69 E8        29.98S
ALLIANCE       PTCLDY    57  46  66 S7        29.99R
CHADRON        CLEAR     66  43  43 S9        29.89F HAZE
KIMBALL        CLEAR     53  42  67 SW7       30.04S
SIDNEY         CLEAR     63  45  51 SW7       30.05R
$$

NEZ057>060-069>072-079>082-301400-
SOUTHWEST NEBRASKA

CITY           SKY/WX    TMP DP  RH WIND       PRES   REMARKS
NORTH PLATTE   PTCLDY    55  51  86 E3        30.03S
IMPERIAL       PTCLDY    58  47  66 CALM      30.04S
LEXINGTON      CLEAR     57  56  94 SE3       30.05R FOG
MC COOK        CLEAR     55  50  83 CALM      30.05R
OGALLALA       CLEAR     58  48  70 SW3       30.02S
$$

NEZ005>010-023>029-035>040-094-301400-
NORTH CENTRAL NEBRASKA

CITY           SKY/WX    TMP DP  RH WIND       PRES   REMARKS
VALENTINE      PTCLDY    62  53  72 SW8       29.95S
AINSWORTH      PTCLDY    63  55  75 S10       29.97S
BROKEN BOW     CLEAR     57  55  93 CALM      30.02S
O`NEILL        SUNNY     62  60  95 S7        30.00R
ORD            SUNNY     55  55 100 SE3       30.01S
THEDFORD       CLEAR     62  54  74 S10       30.01S
$$

NEZ041-046>049-061>064-073>077-083>087-301400-
SOUTH CENTRAL NEBRASKA

CITY           SKY/WX    TMP DP  RH WIND       PRES   REMARKS
GRAND ISLAND   CLOUDY    63  62  97 S6        30.05S FOG
AURORA         FOG       63  63 100 S7        30.05S VSB 1/4
HASTINGS       FOG       61  61 100 S6        30.06R VSB 1/4
HEBRON         FOG       57  56  95 CALM      30.06R VSB<1/4
HOLDREGE       CLEAR     57  55  95 CALM      30.05R
KEARNEY *      CLOUDY    57  55  94 S5        30.04S VSB 1/4
YORK           FOG       61  61 100 SW5       30.06R VSB<1/4
$$

NEZ011>018-030>034-042>045-301400-
NORTHEAST NEBRASKA

CITY           SKY/WX    TMP DP  RH WIND       PRES   REMARKS
NORFOLK        CLOUDY    63  62  97 S8        30.02S FOG
BLAIR          FOG       61  59  94 S7        30.05R VSB<1/4
COLUMBUS *     CLOUDY    63  57  82 SW3       30.05R
FREMONT        CLOUDY    63  61  95 S6        30.05S FOG
TEKAMAH        CLOUDY    63  61  93 SW6       30.04R FOG
$$

NEZ050>053-065>068-078-088>093-301400-
SOUTHEAST NEBRASKA

CITY           SKY/WX    TMP DP  RH WIND       PRES   REMARKS
LINCOLN        CLOUDY    63  61  93 SW6       30.06S FOG
OMAHA EPPLEY   CLOUDY    63  62  97 SW6       30.05R FOG
BEATRICE       FOG       58  58 100 CALM      30.06R VSB<1/4
FALLS CITY     CLOUDY    59  59 100 CALM      30.05R FOG
NEBRASKA CITY  FOG       55  55  99 CALM      30.06R VSB 1/4
PLATTSMOUTH    FOG       61  60  96 SW5       30.06R VSB<1/4
$$

NEZ044-045-051>053-067-301400-
OMAHA AREA

CITY           SKY/WX    TMP DP  RH WIND       PRES   REMARKS
EPPLEY FIELD   CLOUDY    63  62  97 SW6       30.05R FOG
BLAIR          FOG       61  59  94 S7        30.05R VSB<1/4
FREMONT        CLOUDY    63  61  95 S6        30.05S FOG
MILLARD        CLOUDY    63  61  94 CALM      30.05R FOG
OFFUTT AFB     CLOUDY    63  62  99 SW6       30.05R FOG
PLATTSMOUTH    FOG       61  60  96 SW5       30.06R VSB<1/4
WAHOO          FOG       62  61  96 S6        30.05R VSB 1
$$



USA.gov is the U.S. government's official web portal to all federal, state and local government web resources and services.